Regional Weather Roundup
Issued by NWS

Home | Current Version | Previous Version | Graphics & Text | Print | Product List | Glossary On
Versions: 1 2 3 4 5 6 7 8 9 10 11 12 13 14 15 16 17 18 19 20 21 22 23 24 25 26 27 28 29 30 31 32 33 34 35 36 37 38 39 40 41 42 43 44 45 46 47 48 49 50
000
ASUS43 KDMX 230307
RWRIA

WEATHER ROUNDUP FOR IOWA
NATIONAL WEATHER SERVICE DES MOINES IA
1000 PM CDT TUE JUL 22 2014

NOTE: "FAIR" INDICATES FEW OR NO CLOUDS BELOW 12,000 FEET WITH NO
SIGNIFICANT WEATHER AND/OR OBSTRUCTIONS TO VISIBILITY.

* - THESE STATIONS ARE NOT NWS STATIONS...THUS NOT UNDER NWS
QUALITY CONTROL.  THEY ALSO DO NOT REPORT WEATHER SUCH
AS PRECIPITATION OR FOG.

IAZ001>003-012>014-020>022-031>034-043>046-230400-
   NORTHWEST IOWA

CITY           SKY/WX    TMP DP  RH WIND       PRES   REMARKS
CARROLL *      CLEAR     70  66  88 N6        30.14R
CHEROKEE *     CLEAR     70  63  78 NE5       30.17R
DENISON *      CLEAR     73  66  78 NE5       30.13R
LE MARS *      CLEAR     70  63  78 N6        30.18R
ORANGE CITY *  CLEAR     73  59  60 N8        30.19R
SHELDON *      CLEAR     66  61  82 N8        30.19R
SIOUX CITY     CLEAR     76  63  64 NE6       30.16R
SPENCER        CLEAR     68  58  70 N9        30.18R
STORM LAKE *   CLEAR     68  63  83 N8        30.18R
$$

IAZ055>058-069>071-079>083-090>094-230400-
   SOUTHWEST IOWA

CITY           SKY/WX    TMP DP  RH WIND       PRES   REMARKS
ATLANTIC *     CLEAR     72  68  88 N7        30.11S
AUDUBON *      CLEAR     75  70  83 N5        30.15R
CLARINDA *     CLEAR     77  72  83 N7        30.11R
COUNCIL BLFS *   N/A     73  72  94 N6        30.12R
CRESTON *      CLEAR     75  70  83 N9        30.11R
HARLAN  *      CLEAR     72  68  88 N3        30.16S
LAMONI         CLEAR     78  72  81 N9        30.09R HX  80
RED OAK *      CLEAR     75  70  83 N6        30.11S
SHENANDOAH *   CLEAR     75  72  88 N7        30.11R
$$

IAZ047>049-059>061-072>074-084-230400-
   CENTRAL IOWA

CITY           SKY/WX    TMP DP  RH WIND       PRES   REMARKS
AMES           PTCLDY    75  66  73 N10       30.10R
ANKENY *       CLEAR     77  68  73 N9        30.08R
CHARITON *     CLEAR     75  72  88 N7        30.08R
DES MOINES     PTCLDY    80  66  62 N14       30.08R HX  82
GRINNELL*      PTCLDY    75  68  78 N9        30.08R
KNOXVILLE *    CLEAR     77  70  78 N6        30.06R
MARSHALLTOWN   PTCLDY    73  67  81 N7        30.08R
PELLA *        MOCLDY    75  70  83 N7        30.08R
PERRY *          N/A     73  66  78 N7        30.11R
$$

IAZ004>006-015-016-023>025-035-036-230400-
   NORTH CENTRAL IOWA

CITY           SKY/WX    TMP DP  RH WIND       PRES   REMARKS
ALGONA *       CLEAR     70  61  73 N8        30.14R
CLARION *      CLEAR     70  61  73 N6        30.12R
ESTHERVILLE    CLEAR     67  58  72 NW7       30.16R
FORT DODGE *   PTCLDY    72  63  73 CALM      30.14R
MASON CITY     CLEAR     70  62  76 N8        30.12R
FOREST CITY *  CLEAR     72  59  64 N10       30.12S
IOWA FALLS *     N/A     72  64  78 NW6       30.11S
$$

IAZ007>011-017>019-026>030-037>042-050>054-066-230400-
   NORTHEAST IOWA

CITY           SKY/WX    TMP DP  RH WIND       PRES   REMARKS
CEDAR RAPIDS   PTCLDY    77  68  73 NW9       30.03R
CHARLES CITY * CLEAR     72  64  78 N7        30.10R
DECORAH *      CLEAR     72  63  73 N6        30.08R
DUBUQUE        PTCLDY    76  69  79 N10       30.03R
MONTICELLO *   CLEAR     75  72  88 N7        30.03R
OELWEIN *      CLEAR     73  66  78 N8        30.08R
WATERLOO       CLEAR     71  65  81 N5        30.06R
$$

IAZ064-065-067-068-078-230400-
   EAST CENTRAL IOWA

CITY           SKY/WX    TMP DP  RH WIND       PRES   REMARKS
DAVENPORT      PTCLDY    78  72  81 N7        30.01R HX  80
IOWA CITY      PTCLDY    82  71  69 NW6       30.04R HX  86
MT. PLEASANT * MOCLDY    81  77  89 NW7       30.03R HX  88
MUSCATINE *    CLEAR     81  73  78 NW8       30.01R HX  85
QUAD CITIES    PTCLDY    80  77  90 W6        29.99R FOG     HX  87
$$

IAZ062-063-075>077-085>089-095>099-230400-
   SOUTHEAST IOWA

CITY           SKY/WX    TMP DP  RH WIND       PRES   REMARKS
BURLINGTON     PTCLDY    78  77  96 SW7       30.01R FOG     HX  81
FAIRFIELD *    CLOUDY    77  73  88 NW7       30.05R
FORT MADISON * CLEAR     81  79  94 CALM      30.03S FOG     HX  89
KEOKUK *       PTCLDY    79  77  94 CALM      30.01S FOG     HX  83
OSKALOOSA *      N/A     75  72  88 N7        30.06R
CENTERVILLE *  CLEAR     77  73  88 N6        30.08R
OTTUMWA        PTCLDY    76  71  85 N7        30.05R
WASHINGTON *   CLEAR     79  73  83 NW8       30.04R HX  82
$$

ABBREVIATIONS USED IN REMARKS
   TC - TEMPERATURES IN CELSIUS
  WCI - WIND CHILL INDEX
   HX - HEAT INDEX
  VSB - VISIBILITY
$$



USA.gov is the U.S. government's official web portal to all federal, state and local government web resources and services.